Location: La Sioule Rivi�re
(46.3664°N, 3.3197°E)
Time: 12:12:32
(UTC+00:00)

CZ-4 R/B - Pass Details

Date: 29 October 2020
Orbit: 531 x 599 km, 97.7° (Epoch: 23 November)

Event Time Altitude Azimuth Distance (km) Brightness Sun altitude
Rises 18:58:57 0° 191° (SSW) 2,696 4.9 -25.2°
Reaches altitude 10° 19:01:17 10° 204° (SSW) 1,799 4.1 -25.6°
Maximum altitude 19:04:40 28° 264° (W) 1,029 3.3 -26.1°
Drops below altitude 10° 19:08:02 10° 325° (NW) 1,795 4.4 -26.7°
Sets 19:10:22 0° 337° (NNW) 2,688 5.2 -27.1°
